Elsenborn, Belgium

7:41 AM CEST on May 28, 2017 (GMT +0200)
Elsenborn

Weather History for EBLB - March, 2013

Change the Weather History Date:

Friday, March 29, 2013

  Actual Average Record
Temperature  
Mean Temperature 23 °F -  
Max Temperature 29 °F 46 °F 64 °F (1998)
Min Temperature 15 °F 35 °F 15 °F (2013)
Degree Days  
Heating Degree Days 42    
Moisture  
Dew Point 21 °F    
Average Humidity 85    
Maximum Humidity 100    
Minimum Humidity 63    
Precipitation  
Precipitation 0.02 in - - ()
Sea Level Pressure  
Sea Level Pressure 29.70 in    
Wind  
Wind Speed 3 mph ()    
Max Wind Speed 7 mph    
Max Gust Speed -    
Visibility 1.6 miles    
Events Snow    
Averages and records for this station are not official NWS values.
T = Trace of Precipitation, MM = Missing Value Source: Averaged Metar Reports

Daily Weather History Graph

Daily Weather History Graph

Search for Another Location

Airport or City:

Trip Planner

Search our weather history database for the weather conditions in past years. The results will help you decide how hot, cold, wet, or windy it might be!

Date:

Astronomy

Mar. 29, 2013 Rise Set
Actual Time 6:18 AM CET 7:02 PM CET
Civil Twilight 5:45 AM CET 7:35 PM CET
Nautical Twilight 5:05 AM CET 8:15 PM CET
Astronomical Twilight 4:24 AM CET 8:57 PM CET
Moon 10:05 PM CET (3/29) 6:59 AM CET (3/29)
Length of Visible Light 13h 50m
Length of Day
12h 44m
Waning Gibbous, 95% of the Moon is Illuminated
Mar 29
Waning Gibbous
Apr 3
Last Quarter
Apr 10
New
Apr 18
First Quarter
Apr 25
Full

Hourly Weather History & Observations

Time (CET) Temp. Windchill Dew Point Humidity Pressure Visibility Wind Dir Wind Speed Gust Speed Precip Events Conditions
12:25 AM 26.6 °F - 24.8 °F 93% 29.68 in - Variable 1.2 mph - N/A   Scattered Clouds
1:00 AM 27 °F - 24 °F 83% 29.80 in 2 mi 2.2 mph - - Snow Light Snow Showers
1:25 AM 26.6 °F 22.6 °F 24.8 °F 93% 29.68 in 1.6 mi Variable 3.5 mph - N/A   Partly Cloudy
2:11 AM 26.6 °F 22.6 °F 26.6 °F 100% 29.68 in 0.9 mi Variable 3.5 mph - N/A   Partly Cloudy
2:25 AM 26.6 °F - 24.8 °F 93% 29.68 in 0.7 mi Variable 2.3 mph - N/A   Partly Cloudy
3:25 AM 26.6 °F - 26.6 °F 100% 29.68 in 0.6 mi Variable 2.3 mph - N/A   Mostly Cloudy
3:42 AM 26.6 °F - 26.6 °F 100% 29.68 in 0.4 mi Variable 2.3 mph - N/A   Mostly Cloudy
3:48 AM 26.6 °F 22.6 °F 26.6 °F 100% 29.68 in 0.5 mi Variable 3.5 mph - N/A   Mostly Cloudy
4:00 AM 27 °F - 26 °F 96% 29.78 in 1 mi 4.5 mph - - Snow Light Snow
4:25 AM 26.6 °F 21.2 °F 24.8 °F 93% 29.68 in 0.9 mi West 4.6 mph - N/A   Scattered Clouds
4:28 AM 26.6 °F 21.2 °F 24.8 °F 93% 29.68 in 1.2 mi West 4.6 mph - N/A   Partly Cloudy
5:25 AM 26.6 °F 21.2 °F 24.8 °F 93% 29.68 in 1.1 mi WNW 4.6 mph - N/A   Partly Cloudy
5:33 AM 26.6 °F 20.0 °F 24.8 °F 93% 29.68 in 0.9 mi WNW 5.8 mph - N/A   Scattered Clouds
6:25 AM 26.6 °F 22.6 °F 23.0 °F 86% 29.68 in 0.9 mi Variable 3.5 mph - N/A   Mostly Cloudy
7:00 AM 25 °F - 24 °F 97% 29.81 in 1 mi 4.5 mph - - Snow Light Snow
7:25 AM 24.8 °F - 23.0 °F 93% 29.68 in 0.6 mi Variable 2.3 mph - N/A Snow Light Snow
8:25 AM 24.8 °F 20.5 °F 23.0 °F 93% 29.68 in 0.6 mi Variable 3.5 mph - N/A Snow Light Snow
9:25 AM 24.8 °F 19.1 °F 23.0 °F 93% 29.71 in 0.6 mi North 4.6 mph - N/A   Mostly Cloudy
10:00 AM 26 °F - 22 °F 79% 29.82 in 1 mi 4.5 mph - - Snow Light Snow
10:24 AM 26.6 °F 21.2 °F 23.0 °F 86% 29.71 in 1.2 mi North 4.6 mph - N/A   Mostly Cloudy
10:25 AM 26.6 °F 21.2 °F 23.0 °F 86% 29.71 in 1.2 mi North 4.6 mph - N/A   Mostly Cloudy
11:25 AM 26.6 °F 22.6 °F 23.0 °F 86% 29.68 in 1.9 mi Variable 3.5 mph - N/A   Mostly Cloudy
12:25 PM 28.4 °F - 23.0 °F 80% 29.68 in 1.9 mi Variable 2.3 mph - N/A   Mostly Cloudy
1:00 PM 28 °F - 22 °F 70% 29.80 in 2 mi 4.5 mph - -   Mist
1:25 PM 28.4 °F 23.3 °F 21.2 °F 74% 29.68 in 2.5 mi NW 4.6 mph - N/A   Mostly Cloudy
1:26 PM 28.4 °F 22.2 °F 21.2 °F 74% 29.68 in 2.5 mi NW 5.8 mph - N/A   Mostly Cloudy
2:25 PM 28.4 °F 22.2 °F 19.4 °F 69% 29.68 in 2.5 mi WNW 5.8 mph - N/A   Mostly Cloudy
3:25 PM 28.4 °F 22.2 °F 21.2 °F 74% 29.68 in 2.5 mi North 5.8 mph - N/A   Mostly Cloudy
4:00 PM 28 °F - 21 °F 64% 29.79 in 2 mi North 6.7 mph - -   Mist
4:25 PM 26.6 °F 20.0 °F 19.4 °F 74% 29.68 in 2.5 mi NNW 5.8 mph - N/A   Mostly Cloudy
5:25 PM 26.6 °F 20.0 °F 19.4 °F 74% 29.68 in 3.1 mi NNW 5.8 mph - N/A   Partly Cloudy
6:25 PM 26.6 °F 20.0 °F 17.6 °F 69% 29.68 in 3.7 mi North 5.8 mph - N/A   Clear
7:00 PM 25 °F - 18 °F 63% 29.80 in 4 mi 2.2 mph - -   Clear
7:25 PM 24.8 °F - 17.6 °F 74% 29.68 in 3.1 mi Variable 2.3 mph - N/A   Clear
7:48 PM 23.0 °F - 17.6 °F 80% 29.68 in - Variable 2.3 mph - N/A   Clear
8:25 PM 21.2 °F 16.4 °F 17.6 °F 86% 29.68 in - Variable 3.5 mph - N/A   Clear
9:04 PM 19.4 °F - 15.8 °F 86% 29.68 in - Variable 2.3 mph - N/A   Clear
9:11 PM 21.2 °F - 15.8 °F 80% 29.68 in - Variable 2.3 mph - N/A   Clear
9:17 PM 19.4 °F - 15.8 °F 86% 29.68 in - Variable 2.3 mph - N/A   Clear
9:25 PM 19.4 °F - 15.8 °F 86% 29.68 in - Variable 2.3 mph - N/A   Clear
10:00 PM 20 °F - 16 °F 77% 29.81 in 2 mi 2.2 mph - -   Mist
10:25 PM 17.6 °F 12.3 °F 14.0 °F 86% 29.68 in 1.5 mi Variable 3.5 mph - N/A   Clear
11:25 PM 15.8 °F 10.2 °F 12.2 °F 86% 29.65 in 1.5 mi Variable 3.5 mph - N/A   Clear